(389) Industria
ephemeris date magn radius delta ra dec elong phase
Opposition9 Apr 202511.22.438 AU1.453 AU12h54m-20°34'166.4°5.6°
Today9 May 202511.72.443 AU1.549 AU12h34m-17°12'144.5°13.9°
(389) Industria - 2025-05-09
astro.vanbuitenen.nl


 
-1 year
-1 month
-1 day
Now
+1 day
+1 month
+1 year

The interactive orbit chart above shows the body's path through the solar system and its position at the given date. Green and blue lines are shown perpendicular to the ecliptic plane: Green if the path is above the ecliptic plane, blue if it is below. (Left-click and drag to rotate the view; Right-click and drag to move the view; Use scroll wheel to zoom in our out.)

The orbital elements of Industria are:

            e (Eccentricity)                : 0.0662808
            a (Semimajor axis)              : 2.6080366
            i (Inclination)                 : 8.12337
            Ω (Longitude of ascending node) : 282.02288
            ω (Argument of perihelion)      : 267.84969
            M (Mean anomaly)                : 14.88257
            Epoch                           : 2025 May 05

            L (Longitude of perihelion)     : 9.85080
            B (Latitude of perihelion)      : -8.11761
            P (Orbital period in years)     : 4.21            
        

The light curve chart below shows the estimated development of the minor planet's magnitude.


The all-sky chart below shows the path of the minor planet over the same period as the light curve. The current position is marked yellow.





The following chart shows the path of the minor planet in the next few days. The field of view is optimized for (~10x50) binoculars and finderscopes. A more printer-friendly version of the same chart can be found below.




Ephemerides:
Date       Time       RA (2000)    DEC (2000)    delta   radius  elong  phase   PA    magn
2025-05-09 00:00 UT   12 34 31.7   -17 12 01     1.549    2.443  144.5   13.9    96   11.7 
2025-05-09 19:06 UT   12 34 15.9   -17 06 44     1.555    2.443  143.7   14.1    96   11.7 
2025-05-10 00:00 UT   12 34 12.0   -17 05 23     1.556    2.443  143.5   14.2    97   11.7 
2025-05-11 00:00 UT   12 33 54.0   -16 58 50     1.563    2.443  142.6   14.6    97   11.7 
2025-05-12 00:00 UT   12 33 37.6   -16 52 24     1.570    2.443  141.6   14.9    98   11.7 
2025-05-13 00:00 UT   12 33 23.0   -16 46 04     1.577    2.444  140.6   15.2    99   11.8 
2025-05-14 00:00 UT   12 33 10.0   -16 39 50     1.585    2.444  139.6   15.5    99   11.8 
2025-05-15 00:00 UT   12 32 58.7   -16 33 44     1.592    2.444  138.6   15.9   100   11.8 
2025-05-16 00:00 UT   12 32 49.0   -16 27 45     1.600    2.444  137.7   16.2   100   11.8 
2025-05-17 00:00 UT   12 32 41.1   -16 21 54     1.608    2.445  136.7   16.5   101   11.8 
2025-05-18 00:00 UT   12 32 34.8   -16 16 10     1.616    2.445  135.7   16.8   101   11.9 
2025-05-19 00:00 UT   12 32 30.2   -16 10 35     1.625    2.445  134.8   17.1   102   11.9 
2025-05-20 00:00 UT   12 32 27.3   -16 05 08     1.633    2.445  133.8   17.4   102   11.9 
2025-05-21 00:00 UT   12 32 26.0   -15 59 49     1.642    2.446  132.9   17.7   103   11.9 
2025-05-22 00:00 UT   12 32 26.4   -15 54 40     1.651    2.446  131.9   17.9   103   11.9 
2025-05-23 00:00 UT   12 32 28.5   -15 49 39     1.660    2.446  131.0   18.2   104   12.0 
2025-05-24 00:00 UT   12 32 32.3   -15 44 47     1.669    2.446  130.0   18.5   104   12.0 
2025-05-25 00:00 UT   12 32 37.7   -15 40 05     1.678    2.447  129.1   18.7   104   12.0 
2025-05-26 00:00 UT   12 32 44.7   -15 35 32     1.687    2.447  128.2   19.0   105   12.0 
2025-05-27 00:00 UT   12 32 53.4   -15 31 08     1.697    2.447  127.3   19.2   105   12.0 
2025-05-28 00:00 UT   12 33 03.7   -15 26 55     1.706    2.447  126.4   19.5   105   12.1 
2025-05-29 00:00 UT   12 33 15.6   -15 22 51     1.716    2.448  125.5   19.7   106   12.1 
2025-05-30 00:00 UT   12 33 29.1   -15 18 57     1.726    2.448  124.6   19.9   106   12.1 
2025-05-31 00:00 UT   12 33 44.2   -15 15 13     1.736    2.448  123.7   20.2   106   12.1 
2025-06-01 00:00 UT   12 34 00.9   -15 11 39     1.746    2.449  122.8   20.4   107   12.1 
2025-06-02 00:00 UT   12 34 19.2   -15 08 15     1.757    2.449  121.9   20.6   107   12.2 
2025-06-03 00:00 UT   12 34 38.9   -15 05 02     1.767    2.449  121.0   20.8   107   12.2 
2025-06-04 00:00 UT   12 35 00.2   -15 01 58     1.777    2.449  120.2   21.0   107   12.2 
2025-06-05 00:00 UT   12 35 23.0   -14 59 04     1.788    2.450  119.3   21.2   108   12.2 
2025-06-06 00:00 UT   12 35 47.3   -14 56 21     1.799    2.450  118.4   21.4   108   12.2 
2025-06-07 00:00 UT   12 36 13.0   -14 53 47     1.809    2.450  117.6   21.5   108   12.3 
2025-06-08 00:00 UT   12 36 40.1   -14 51 24     1.820    2.451  116.7   21.7   108   12.3 


    Terminology:
            
    delta:  distance between minor planet and earth in AU
    radius: distance between minor planet and sun in AU
    magn:   magnitude (brightness) estimate    
    ra:     right ascension in hours (24h = 360deg)
    dec:    declination in degrees
    elong:  elongation in degrees (angle sun-earth-minor planet)    
    phase:  phase angle in degrees (angle sun-minor planet-earth)        
    AU:     Astronomical Unit (mean distance between earth and sun: 149597870.7 km
    

Orbital elements provided by the MPC (Minor Planet Center).
Calculations by a modified version of AAPlus, a C# implementation of the AA+ project by PJ Naughter from the algorithms presented in the book "Astronomical Algorithms" by Jean Meeus.
NGC2000 dso catalog and star labels from VizieR as provided by the Strasbourg astronomical Data Center.
Tycho2 catalog from the ESO archive.